Pensacola NAS, FL

12:32 PM CDT on May 23, 2018 (GMT -0500)
Pensacola Naval Air Station

Weather History for KNPA - April, 2013

Change the Weather History Date:

Thursday, April 25, 2013

  Actual Average Record
Temperature  
Mean Temperature 68 °F -  
Max Temperature 79 °F 75 °F 84 °F (1999)
Min Temperature 57 °F 59 °F 46 °F (1998)
Cooling Degree Days 2    
Growing Degree Days 18 (Base 50)    
Moisture  
Dew Point 59 °F    
Average Humidity 84    
Maximum Humidity 100    
Minimum Humidity 48    
Precipitation  
Precipitation 0.00 in - - ()
Sea Level Pressure  
Sea Level Pressure 30.19 in    
Wind  
Wind Speed 4 mph (North)    
Max Wind Speed 16 mph    
Max Gust Speed -    
Visibility 6 miles    
Events Fog , Rain    
Averages and records for this station are not official NWS values.
T = Trace of Precipitation, MM = Missing Value Source: NWS Daily Summary

Daily Weather History Graph

Daily Weather History Graph

Search for Another Location

Airport or City:

Astronomy

Apr. 25, 2013 Rise Set
Actual Time 6:11 AM CDT 7:23 PM CDT
Civil Twilight 5:46 AM CDT 7:48 PM CDT
Nautical Twilight 5:16 AM CDT 8:18 PM CDT
Astronomical Twilight 4:45 AM CDT 8:49 PM CDT
Moon 7:33 PM CDT (4/25) 5:53 AM CDT (4/25)
Length of Visible Light 14h 02m
Length of Day
13h 12m
Full, 100% of the Moon is Illuminated
Apr 25
Full
Apr 25
Full
May 2
Last Quarter
May 9
New
May 17
First Quarter

Hourly Weather History & Observations

Time (CDT) Temp. Dew Point Humidity Pressure Visibility Wind Dir Wind Speed Gust Speed Precip Events Conditions
12:03 AM 60.8 °F 60.8 °F 100% 30.14 in 0.2 mi Calm Calm - N/A Fog Fog
12:13 AM 60.8 °F 60.8 °F 100% 30.14 in 0.5 mi Calm Calm - N/A Fog Fog
12:28 AM 62.6 °F 60.8 °F 94% 30.13 in 0.2 mi Calm Calm - N/A Fog Fog
12:42 AM 62.6 °F 62.6 °F 100% 30.13 in 0.5 mi Calm Calm - 0.00 in Fog , Rain Light Rain
12:56 AM 63.0 °F 62.1 °F 97% 30.13 in 0.5 mi Calm Calm - 0.00 in Fog Fog
1:10 AM 62.6 °F 62.6 °F 100% 30.12 in 2.0 mi Calm Calm - N/A   Mostly Cloudy
1:20 AM 64.4 °F 62.6 °F 94% 30.12 in 0.8 mi North 3.5 mph - N/A   Mist
1:31 AM 62.6 °F 62.6 °F 100% 30.12 in 1.5 mi North 3.5 mph - N/A   Mostly Cloudy
1:36 AM 64.4 °F 64.4 °F 100% 30.12 in 3.0 mi North 3.5 mph - N/A   Mostly Cloudy
1:56 AM 64.0 °F 64.0 °F 100% 30.13 in 3.0 mi Calm Calm - 0.00 in   Overcast
2:12 AM 64.4 °F 64.4 °F 100% 30.12 in 2.5 mi Calm Calm - N/A   Overcast
2:34 AM 64.4 °F 64.4 °F 100% 30.13 in 0.8 mi NNW 6.9 mph - N/A   Overcast
2:46 AM 64.4 °F 64.4 °F 100% 30.13 in 1.8 mi NNW 5.8 mph - N/A   Overcast
2:56 AM 63.0 °F 63.0 °F 100% 30.14 in 0.8 mi NNW 6.9 mph - N/A   Mist
3:56 AM 62.1 °F 62.1 °F 100% 30.16 in 0.5 mi North 8.1 mph - 0.00 in Fog Fog
4:14 AM 60.8 °F 60.8 °F 100% 30.15 in 1.0 mi NNW 9.2 mph - N/A   Mist
4:32 AM 60.8 °F 60.8 °F 100% 30.15 in 2.5 mi North 8.1 mph - N/A   Overcast
4:46 AM 60.8 °F 60.8 °F 100% 30.15 in 1.2 mi North 5.8 mph - N/A   Overcast
4:56 AM 60.1 °F 60.1 °F 100% 30.16 in 1.0 mi North 8.1 mph - 0.00 in Rain Light Rain
5:21 AM 60.8 °F 59.0 °F 94% 30.16 in 2.5 mi North 8.1 mph - 0.00 in   Overcast
5:44 AM 59.0 °F 59.0 °F 100% 30.17 in 3.0 mi North 8.1 mph - 0.00 in   Overcast
5:56 AM 59.0 °F 59.0 °F 100% 30.18 in 2.0 mi North 6.9 mph - 0.00 in   Overcast
6:21 AM 57.2 °F 57.2 °F 100% 30.18 in 4.0 mi North 10.4 mph - N/A   Overcast
6:56 AM 57.9 °F 57.0 °F 97% 30.21 in 5.0 mi North 8.1 mph - N/A   Overcast
7:34 AM 57.2 °F 55.4 °F 94% 30.21 in 10.0 mi North 10.4 mph - N/A   Overcast
7:56 AM 57.9 °F 55.9 °F 93% 30.22 in 10.0 mi North 8.1 mph - N/A   Overcast
8:26 AM 59.0 °F 55.4 °F 88% 30.22 in 10.0 mi North 10.4 mph - N/A   Overcast
8:56 AM 59.0 °F 55.9 °F 90% 30.25 in 10.0 mi North 9.2 mph - N/A   Mostly Cloudy
9:56 AM 62.1 °F 55.9 °F 80% 30.27 in 10.0 mi NNE 16.1 mph - N/A   Overcast
10:56 AM 66.0 °F 57.9 °F 75% 30.27 in 10.0 mi NNE 9.2 mph - N/A   Overcast
11:37 AM 69.8 °F 60.8 °F 73% 30.26 in 10.0 mi North 6.9 mph - N/A   Scattered Clouds
11:56 AM 71.1 °F 60.1 °F 68% 30.26 in 10.0 mi NNE 4.6 mph - N/A   Scattered Clouds
12:56 PM 75.0 °F 62.1 °F 64% 30.25 in 10.0 mi Variable 4.6 mph - N/A   Scattered Clouds
1:29 PM 75.2 °F 62.6 °F 65% 30.24 in 10.0 mi Variable 3.5 mph - N/A   Mostly Cloudy
1:56 PM 75.9 °F 62.1 °F 62% 30.25 in 10.0 mi NNE 6.9 mph - N/A   Mostly Cloudy
2:56 PM 75.9 °F 64.0 °F 67% 30.23 in 10.0 mi Calm Calm - N/A   Mostly Cloudy
3:56 PM 78.1 °F 61.0 °F 56% 30.22 in 10.0 mi Variable 4.6 mph - N/A   Scattered Clouds
4:56 PM 78.1 °F 62.1 °F 58% 30.21 in 10.0 mi Variable 3.5 mph - N/A   Scattered Clouds
5:56 PM 77.0 °F 57.0 °F 50% 30.21 in 10.0 mi North 8.1 mph - N/A   Partly Cloudy
6:56 PM 73.0 °F 55.9 °F 55% 30.22 in 10.0 mi NNW 5.8 mph - N/A   Partly Cloudy
7:56 PM 70.0 °F 54.0 °F 57% 30.22 in 10.0 mi North 9.2 mph - N/A   Partly Cloudy
8:56 PM 66.9 °F 51.1 °F 57% 30.24 in 10.0 mi North 5.8 mph - N/A   Clear
9:56 PM 66.0 °F 48.0 °F 52% 30.26 in 10.0 mi NNE 6.9 mph - N/A   Clear
10:56 PM 64.9 °F 45.0 °F 48% 30.26 in 10.0 mi NNE 6.9 mph - N/A   Clear
11:56 PM 61.0 °F 45.0 °F 56% 30.26 in 10.0 mi North 4.6 mph - N/A   Clear